Buckland, AK

6:49 AM AKDT on August 18, 2017 (GMT -0800)
Buckland

Weather History for PABL - February, 2013

Change the Weather History Date:

Saturday, February 16, 2013

  Actual Average (PASK) Record (PASK)
Temperature  
Mean Temperature -24 °F -  
Max Temperature -16 °F 5 °F 35 °F (2006)
Min Temperature -32 °F -3 °F -36 °F (1998)
Degree Days  
Heating Degree Days 89    
Moisture  
Dew Point -23 °F    
Average Humidity 95    
Maximum Humidity 100    
Minimum Humidity 76    
Precipitation  
Precipitation 0.00 in - - ()
Sea Level Pressure  
Sea Level Pressure 30.20 in    
Wind  
Wind Speed 1 mph (NNW)    
Max Wind Speed 8 mph    
Max Gust Speed -    
Visibility 4 miles    
Events      
Averages and records for this station are not official NWS values.
T = Trace of Precipitation, MM = Missing Value Source: NWS Daily Summary

Daily Weather History Graph

Daily Weather History Graph

Search for Another Location

Airport or City:

Trip Planner

Search our weather history database for the weather conditions in past years. The results will help you decide how hot, cold, wet, or windy it might be!

Date:

Astronomy

Feb. 16, 2013 Rise Set
Actual Time 9:43 AM AKST 6:14 PM AKST
Civil Twilight 8:49 AM AKST 7:09 PM AKST
Nautical Twilight 7:49 AM AKST 8:09 PM AKST
Astronomical Twilight 6:50 AM AKST 9:09 PM AKST
Moon 9:58 AM AKST (2/16) 3:25 AM AKST (2/16)
Length of Visible Light 10h 20m
Length of Day
8h 30m
Waxing Crescent, 41% of the Moon is Illuminated
Feb 16
Waxing Crescent
Feb 17
First Quarter
Feb 25
Full
Mar 4
Last Quarter
Mar 11
New

Hourly Weather History & Observations

Time (AKST) Temp. Windchill Dew Point Humidity Pressure Visibility Wind Dir Wind Speed Gust Speed Precip Events Conditions
12:16 AM - - - N/A% 30.08 in 10.0 mi ESE 3.5 mph - N/A   Unknown
12:36 AM -20.2 °F -30.9 °F -20.2 °F 100% 30.10 in 10.0 mi SE 3.5 mph - N/A   Unknown
12:56 AM - - - N/A% 30.10 in 10.0 mi Calm Calm - N/A   Unknown
1:16 AM -22.0 °F - - N/A% 30.11 in 10.0 mi Calm Calm - N/A   Unknown
1:36 AM -20.2 °F - -25.6 °F 76% 30.12 in 10.0 mi Calm Calm - N/A   Unknown
1:56 AM -23.8 °F - - N/A% 30.12 in 10.0 mi Calm Calm - N/A   Unknown
2:16 AM -25.6 °F -41.9 °F - N/A% 30.12 in 10.0 mi SSW 5.8 mph - N/A   Unknown
2:36 AM -25.6 °F - - N/A% 30.13 in 10.0 mi Calm Calm - N/A   Unknown
2:56 AM -25.6 °F -39.8 °F -25.6 °F 100% 30.13 in 10.0 mi South 4.6 mph - N/A   Unknown
3:16 AM -25.6 °F - - N/A% 30.13 in 5.0 mi Calm Calm - N/A   Unknown
3:36 AM -23.8 °F - - N/A% 30.14 in 5.0 mi Calm Calm - N/A   Unknown
3:56 AM -22.0 °F -33.0 °F - N/A% 30.14 in 6.0 mi South 3.5 mph - N/A   Unknown
4:16 AM -20.2 °F -30.9 °F - N/A% 30.14 in 7.0 mi SSE 3.5 mph - N/A   Unknown
4:36 AM -20.2 °F -30.9 °F - N/A% 30.14 in 5.0 mi SSE 3.5 mph - N/A   Unknown
4:56 AM -20.2 °F - - N/A% 30.14 in 5.0 mi Calm Calm - N/A   Unknown
5:16 AM -20.2 °F - - N/A% 30.15 in 7.0 mi Calm Calm - N/A   Unknown
5:36 AM - - - N/A% 30.15 in 7.0 mi Calm Calm - N/A   Unknown
5:56 AM -23.8 °F - - N/A% 30.16 in 10.0 mi Calm Calm - N/A   Unknown
6:16 AM -22.0 °F - - N/A% 30.16 in 10.0 mi Calm Calm - N/A   Unknown
6:36 AM -23.8 °F - -23.8 °F 100% 30.16 in 10.0 mi Calm Calm - N/A   Unknown
6:56 AM -25.6 °F - - N/A% 30.17 in 10.0 mi Calm Calm - N/A   Unknown
7:16 AM -27.4 °F - - N/A% 30.17 in 9.0 mi Calm Calm - N/A   Unknown
7:36 AM -27.4 °F - - N/A% 30.18 in 10.0 mi Calm Calm - N/A   Unknown
7:56 AM -27.4 °F - - N/A% 30.18 in 3.0 mi Calm Calm - N/A   Unknown
8:16 AM -31.0 °F - - N/A% 30.18 in 6.0 mi Calm Calm - N/A   Unknown
8:36 AM -29.2 °F - - N/A% 30.19 in 5.0 mi Calm Calm - N/A   Unknown
8:56 AM -25.6 °F - -25.6 °F 100% 30.18 in 5.0 mi Calm Calm - N/A   Unknown
9:16 AM - - - N/A% 30.18 in 5.0 mi Calm Calm - N/A   Unknown
9:36 AM -29.2 °F - - N/A% 30.19 in 5.0 mi Calm Calm - N/A   Unknown
9:56 AM -32.8 °F - - N/A% 30.19 in 3.0 mi Calm Calm - N/A   Unknown
10:16 AM -29.2 °F - - N/A% 30.19 in 2.5 mi Calm Calm - N/A   Unknown
10:36 AM -27.4 °F - - N/A% 30.20 in 1.2 mi Calm Calm - N/A   Unknown
10:56 AM - - - N/A% 30.20 in 1.5 mi Calm Calm - N/A   Unknown
11:16 AM -29.2 °F - - N/A% 30.21 in 1.8 mi Calm Calm - N/A   Unknown
11:36 AM -27.4 °F - - N/A% 30.22 in 1.8 mi Calm Calm - N/A   Unknown
11:56 AM -29.2 °F - - N/A% 30.22 in 1.0 mi Calm Calm - N/A   Unknown
12:16 PM -29.2 °F - - N/A% 30.23 in 1.0 mi Calm Calm - N/A   Unknown
12:36 PM -25.6 °F -37.1 °F - N/A% 30.23 in 1.0 mi NNW 3.5 mph - N/A   Unknown
12:56 PM -25.6 °F - -25.6 °F 100% 30.24 in 1.0 mi Calm Calm - N/A   Unknown
1:16 PM -27.4 °F - - N/A% 30.24 in 0.8 mi Calm Calm - N/A   Unknown
1:36 PM -25.6 °F - - N/A% 30.23 in 1.0 mi Calm Calm - N/A   Unknown
1:56 PM -23.8 °F - - N/A% 30.24 in 3.0 mi Calm Calm - N/A   Unknown
2:16 PM -23.8 °F - -25.6 °F 91% 30.24 in 5.0 mi Calm Calm - N/A   Unknown
2:36 PM -25.6 °F - - N/A% 30.24 in 5.0 mi Calm Calm - N/A   Unknown
2:56 PM -25.6 °F - - N/A% 30.25 in 6.0 mi Calm Calm - N/A   Unknown
3:16 PM -23.8 °F - -29.2 °F 76% 30.24 in 9.0 mi Calm Calm - N/A   Unknown
3:36 PM -23.8 °F - - N/A% 30.24 in 7.0 mi Calm Calm - N/A   Unknown
3:56 PM -23.8 °F - - N/A% 30.25 in 3.0 mi Calm Calm - N/A   Unknown
4:16 PM -20.2 °F - -20.2 °F 100% 30.24 in 2.5 mi Calm Calm - N/A   Unknown
4:36 PM -23.8 °F - - N/A% 30.24 in 1.8 mi Calm Calm - N/A   Unknown
4:56 PM -23.8 °F - - N/A% 30.24 in 2.0 mi Calm Calm - N/A   Unknown
5:16 PM -25.6 °F - - N/A% 30.24 in 1.2 mi Calm Calm - N/A   Unknown
5:36 PM - - - N/A% 30.23 in 1.2 mi Calm Calm - N/A   Unknown
5:56 PM -27.4 °F - - N/A% 30.24 in 1.0 mi Calm Calm - N/A   Unknown
6:16 PM -27.4 °F - - N/A% 30.24 in 0.8 mi Calm Calm - N/A   Unknown
6:36 PM -27.4 °F - - N/A% 30.24 in 1.0 mi Calm Calm - N/A   Unknown
6:56 PM -29.2 °F - - N/A% 30.24 in 1.0 mi Calm Calm - N/A   Unknown
7:16 PM -29.2 °F - - N/A% 30.24 in 1.5 mi Calm Calm - N/A   Unknown
7:36 PM -27.4 °F - - N/A% 30.24 in 1.5 mi Calm Calm - N/A   Unknown
7:56 PM -25.6 °F - - N/A% 30.24 in 1.8 mi Calm Calm - N/A   Unknown
8:16 PM -25.6 °F - - N/A% 30.24 in 1.8 mi Calm Calm - N/A   Unknown
8:36 PM -25.6 °F - - N/A% 30.24 in 1.8 mi Calm Calm - N/A   Unknown
8:56 PM - - - N/A% 30.23 in 3.0 mi NNW 8.1 mph - N/A   Unknown
9:16 PM -16.6 °F -32.9 °F - N/A% 30.24 in 2.0 mi NNW 6.9 mph - N/A   Unknown
9:36 PM -16.6 °F -31.3 °F - N/A% 30.24 in 2.0 mi NNW 5.8 mph - N/A   Unknown
9:56 PM - - - N/A% 30.24 in 2.0 mi NNW 3.5 mph - N/A   Unknown
10:16 PM -18.4 °F -35.1 °F -18.4 °F 100% 30.24 in 1.5 mi NNW 6.9 mph - N/A   Unknown
10:36 PM - - - N/A% 30.23 in 5.0 mi North 6.9 mph - N/A   Unknown
10:56 PM - - - N/A% 30.24 in 4.0 mi North 5.8 mph - N/A   Unknown
11:16 PM -18.4 °F -33.4 °F -18.4 °F 100% 30.24 in 1.8 mi North 5.8 mph - N/A   Unknown
11:36 PM -18.4 °F -33.4 °F - N/A% 30.25 in 1.8 mi North 5.8 mph - N/A   Unknown
11:56 PM -18.4 °F -33.4 °F -20.2 °F 91% 30.25 in 1.5 mi North 5.8 mph - N/A   Unknown